Location: Tel Aviv
(32.0670°N, 34.7670°E)
Time: 02:57:01
(UTC+03:00)

Tiros 1 - Pass Details

Date: 19 January 2022
Orbit: 629 x 663 km, 48.4° (Epoch: 26 May)

Event Time Altitude Azimuth Distance (km) Brightness Sun altitude
Rises 08:24:43 0° 296° (WNW) 2,941 9.9 17.9°
Reaches altitude 10° 08:27:24 10° 283° (WNW) 2,023 9.2 18.4°
Maximum altitude 08:31:07 24° 230° (SW) 1,321 8.8 19.0°
Drops below altitude 10° 08:34:47 10° 176° (S) 2,000 10.5 19.6°
Sets 08:37:26 0° 162° (SSE) 2,901 11.5 20.0°
